This is the latest recevied weather packets stored in our database for station/object N0ZRD-10. If no packets are shown the sender has not sent any weather packets the latest 10 day(s).
| Time | Temp. | Humidity | Pressure | Rain* | Wind** | Luminosity | Snow |
|---|---|---|---|---|---|---|---|
| 1778034548 | 2.22° C | 55% | - | 0 mm | - | - | - |
| 1778033948 | 2.22° C | 53% | - | 0 mm | - | - | - |
| 1778033346 | 2.22° C | 52% | - | 0 mm | - | - | - |
| 1778032145 | 2.22° C | 50% | - | 0 mm | - | - | - |
| 1778031543 | 2.22° C | 51% | - | 0 mm | - | - | - |
| 1778030341 | 2.78° C | 50% | - | 0 mm | - | - | - |
| 1778029740 | 2.22° C | 49% | - | 0 mm | - | - | - |
| 1778029139 | 2.78° C | 49% | - | 0 mm | - | - | - |
| 1778028537 | 2.78° C | 50% | - | 0 mm | - | - | - |
| 1778027936 | 3.33° C | 49% | - | 0 mm | - | - | - |
| 1778027335 | 3.33° C | 49% | - | 0 mm | - | - | - |
| 1778026734 | 3.33° C | 52% | - | 0 mm | - | - | - |
| 1778025532 | 3.33° C | 50% | - | 0 mm | - | - | - |
| 1778024330 | 3.33° C | 50% | - | 0 mm | - | - | - |
| 1778023729 | 3.89° C | 48% | - | 0 mm | - | - | - |
| 1778023128 | 3.89° C | 47% | - | 0 mm | - | - | - |
| 1778021926 | 3.89° C | 46% | - | 0 mm | - | - | - |
| 1778020724 | 3.89° C | 48% | - | 0 mm | - | - | - |
| 1778020123 | 3.89° C | 45% | - | 0 mm | - | - | - |
| 1778019522 | 3.89° C | 47% | - | 0 mm | - | - | - |
| 1778018320 | 4.44° C | 47% | - | 0 mm | - | - | - |
| 1778017116 | 3.89° C | 45% | - | 0 mm | - | - | - |
| 1778015915 | 4.44° C | 45% | - | 0 mm | - | - | - |
| 1778014713 | 4.44° C | 45% | - | 0 mm | - | - | - |
| 1778014112 | 4.44° C | 48% | - | 0 mm | - | - | - |
* Rain latest hour (hover to see other rain measurements)
** Current wind speed in m/s (hover to see current wind gust speed)